Terug naar catalogus

STARLINK-35827

ActiefCommunicatieVLEO
NORAD 66365·PAYLOAD·🇺🇸 United States

Gelanceerd Nov 6, 2025 vanaf Vandenberg Space Force Base

Loading…

Volgende Passages (komende 24 uur)

TLE

VersSource: CelesTrak SupGP

Epoch: Sep 14, 2026, 22:45 UTC

1 66365C 25254T   26257.94840278  .00055218  00000+0  17764-2 0  2572
2 66365  53.1573  72.1470 0001095  84.8577 116.0478 15.31661492    13

Volg STARLINK-35827 in realtime met AllMySat

Download on the App Store